Bedford, MA

10:15 AM EDT on June 18, 2018 (GMT -0400)
Hanscom

Weather History for KBED - June, 2018

Change the Weather History Date:

Thursday, June 14, 2018

  Actual Average Record
Temperature  
Mean Temperature 71 °F -  
Max Temperature 80 °F 77 °F 91 °F (1957)
Min Temperature 64 °F 53 °F 42 °F (1970)
Cooling Degree Days 6    
Growing Degree Days 21 (Base 50)    
Moisture  
Dew Point 56 °F    
Average Humidity 63    
Maximum Humidity 90    
Minimum Humidity 39    
Precipitation  
Precipitation 0.00 in - - ()
Sea Level Pressure  
Sea Level Pressure 29.70 in    
Wind  
Wind Speed 8 mph (West)    
Max Wind Speed 18 mph    
Max Gust Speed 26 mph    
Visibility 10 miles    
Events Rain    
Averages and records for this station are not official NWS values.
T = Trace of Precipitation, MM = Missing Value Source: NWS Daily Summary

Daily Weather History Graph

Daily Weather History Graph

Search for Another Location

Airport or City:

Astronomy

Jun. 14, 2018 Rise Set
Actual Time 5:07 AM EDT 8:23 PM EDT
Civil Twilight 4:32 AM EDT 8:58 PM EDT
Nautical Twilight 3:47 AM EDT 9:43 PM EDT
Astronomical Twilight 2:52 AM EDT 10:38 PM EDT
Moon 6:02 AM EDT (6/14) 9:20 PM EDT (6/14)
Length of Visible Light 16h 26m
Length of Day
15h 16m
New Moon, 1% of the Moon is Illuminated
Jun 14
New Moon
Jun 20
First Quarter
Jun 28
Full
Jul 6
Last Quarter
Jul 12
New

Hourly Weather History & Observations

Time (EDT) Temp. Dew Point Humidity Pressure Visibility Wind Dir Wind Speed Gust Speed Precip Events Conditions
12:51 AM 68.0 °F 64.4 °F 88% 29.64 in 10.0 mi WSW 3.5 mph - N/A   Scattered Clouds
12:56 AM 68.0 °F 64.9 °F 90% 29.68 in 10.0 mi West 3.5 mph - N/A   Mostly Cloudy
1:05 AM 68.0 °F 64.9 °F 90% 29.64 in 10.0 mi West 4.6 mph - N/A   Mostly Cloudy
1:15 AM 69.1 °F 66.0 °F 90% 29.64 in 10.0 mi Calm Calm - N/A   Scattered Clouds
1:56 AM 69.1 °F 66.0 °F 90% 29.66 in 10.0 mi SW 5.8 mph - 0.00 in Rain Light Rain
2:56 AM 69.1 °F 64.9 °F 87% 29.64 in 10.0 mi WSW 6.9 mph - 0.00 in   Clear
3:56 AM 68.0 °F 61.0 °F 78% 29.65 in 10.0 mi WSW 8.1 mph - N/A   Clear
4:56 AM 68.0 °F 55.9 °F 65% 29.65 in 10.0 mi West 16.1 mph 20.7 mph N/A   Clear
5:56 AM 66.9 °F 53.1 °F 61% 29.66 in 10.0 mi WSW 10.4 mph - N/A   Clear
6:56 AM 68.0 °F 53.1 °F 59% 29.66 in 10.0 mi West 12.7 mph - N/A   Clear
7:56 AM 71.1 °F 53.1 °F 53% 29.67 in 10.0 mi West 13.8 mph - N/A   Clear
8:56 AM 72.0 °F 52.0 °F 49% 29.66 in 10.0 mi West 13.8 mph 26.5 mph N/A   Clear
9:56 AM 75.0 °F 52.0 °F 44% 29.66 in 10.0 mi WNW 18.4 mph 25.3 mph N/A   Scattered Clouds
10:56 AM 78.1 °F 51.1 °F 39% 29.67 in 10.0 mi West 12.7 mph 26.5 mph N/A   Mostly Cloudy
11:56 AM 77.0 °F 51.1 °F 40% 29.67 in 10.0 mi WNW 13.8 mph 25.3 mph N/A   Mostly Cloudy
12:56 PM 75.0 °F 51.1 °F 43% 29.67 in 10.0 mi West 12.7 mph 18.4 mph N/A   Overcast
1:56 PM 75.0 °F 51.1 °F 43% 29.68 in 10.0 mi WNW 17.3 mph 26.5 mph N/A   Overcast
2:56 PM 73.9 °F 52.0 °F 46% 29.69 in 10.0 mi WNW 16.1 mph - N/A   Mostly Cloudy
3:56 PM 72.0 °F 53.1 °F 51% 29.70 in 10.0 mi WNW 9.2 mph - N/A   Overcast
4:56 PM 71.1 °F 54.0 °F 55% 29.73 in 10.0 mi NW 13.8 mph - N/A   Overcast
5:56 PM 70.0 °F 53.1 °F 55% 29.75 in 10.0 mi WNW 13.8 mph 21.9 mph N/A   Overcast
6:56 PM 68.0 °F 53.1 °F 59% 29.77 in 10.0 mi West 6.9 mph - N/A   Overcast
7:56 PM 68.0 °F 53.1 °F 59% 29.79 in 10.0 mi West 11.5 mph - N/A   Overcast
8:56 PM 64.9 °F 54.0 °F 68% 29.79 in 10.0 mi West 8.1 mph - N/A   Partly Cloudy
9:56 PM 64.0 °F 54.0 °F 70% 29.82 in 10.0 mi West 8.1 mph - N/A   Partly Cloudy
10:56 PM 64.0 °F 54.0 °F 70% 29.83 in 10.0 mi West 5.8 mph - N/A   Overcast
11:56 PM 64.0 °F 54.0 °F 70% 29.84 in 10.0 mi West 5.8 mph - N/A   Overcast